Weather in Novosvobodnaya

Russia / Republic of Adygea     44°21′07″N   40°24′45″E
temp.,
°C
wind,
m/s
gust,
m/s
humid.,
%
clouds,
%
prec.,
mm/h
press.,
hPa
HPBL,
m
20 january, thu
thu2000:00−9sw1197100 0.3 102115
03:00−12ssw219473 0.4 102318
06:00−10ssw1189100 0.1 102241
09:00−7wsw1391100 0.5 1022216
12:00−4nw2382100 0.4 1021707
15:00−4nw2491100 1.3 1021603
18:00−6ne119899 0.9 102250
21:00−10s219542 1.1 102421
21 january, fri
fri2100:00−9ssw2280100 0.0 102348
03:00−9s227892 0.0 102243
06:00−8ssw22865 0.0 102033
09:00−5ssw23815 0.0 102053
12:00+2sw13713 0.0 1017342
15:00+3wsw248089 0.0 1015244
18:00−2ssw2290100 0.0 101723
21:00−2ssw2286100 0.0 101731
22 january, sat
sat2200:00−3ssw2188100 0.0 101622
03:00−4ssw2288100 0.0 101523
06:00−5ssw1193100 0.0 101511
09:00−3se0087100 0.0 101555
12:00+1ne0081100 0.0 1012214
15:00+1ne1188100 0.0 1012194
18:00−2ene1199100 0.1 101458
21:00−4sse1198100 0.2 101421
23 january, sun
sun2300:00−4s1195100 0.0 101313
03:00−3se0195100 0.1 101217
06:00−4sse1195100 0.0 101019
09:00−1sse1186100 0.0 100838
12:00+2nw2388100 0.0 1008296
15:00+1ene1199100 0.5 1009151
18:00−1ne119995 0.0 101194
21:00−1ese129895 0.1 1012155
24 january, mon
mon2400:00−2se119789 0.0 101216
03:00−3s2195100 0.1 101322
06:00−3sse2197100 0.3 101321
09:00−1wnw119460 0.4 101445
12:00+2nw239096 0.0 1014422
15:000nnw2598100 0.4 1016487
18:00−3wnw2597100 3.9 1021382
21:00−4wnw2496100 6.3 1022296